Starlink 5682

operational
NORAD ID: 55457 Int'l Des: 2023-015 Owner: SPXS Country: US Constellation: starlink
LEOCIRCULAR

About Starlink 5682

Description loading...

Live Position

Loading 3D Globe...

Upcoming Passes

Altitude History

Altitude vs Time

uPlot chart will show altitude changes over time

Two-Line Element Set

1 55457U 23015J 25302.74515202 .00000132 00000-0 24863-4 0 9998
2 55457 43.0052 317.7578 0000943 274.3888 85.6846 15.02530217151051
Epoch: Oct 29, 2025 • Age: 34 hours

Current Status

Altitude 562.9 km
Velocity 7.59 km/s
Sub-Earth Point 43.00°N, 62.28°W
Launch Date Feb 2, 2023
Age 2.7 years
Type internet

Technical Details

Classification Payload
Mass 305.00 kg
Dry Mass 290.00 kg
Total Mass 305.00 kg
Length 0.20 m
Diameter 2.80 m
Span 9.00 m
Shape Box + pan
Manufacturer SPXS
Bus Type Starlink
Phase Status In Orbit
Owner/State SPXS/US

Large Constellations

Loading constellations...